This is the latest recevied weather packets stored in our database for station/object KD4IZ-13. If no packets are shown the sender has not sent any weather packets the latest 10 day(s).
| Time | Temp. | Humidity | Pressure | Rain* | Wind** | Luminosity | Snow |
|---|---|---|---|---|---|---|---|
| 1778182515 | 17.78° C | 53% | 1010.3 hPa | 0 mm | - | 596 W/m² | - |
| 1778182212 | 17.22° C | 45% | 1010.6 hPa | 0 mm | - | 609 W/m² | - |
| 1778181908 | 17.22° C | 47% | 1010.7 hPa | 0 mm | - | 628 W/m² | - |
| 1778181605 | 16.67° C | 49% | 1010.7 hPa | 0 mm | - | 630 W/m² | - |
| 1778181300 | 17.22° C | 47% | 1010.9 hPa | 0 mm | - | 611 W/m² | - |
| 1778180997 | 17.22° C | 51% | 1011 hPa | 0 mm | - | 586 W/m² | - |
| 1778180695 | 16.67° C | 49% | 1010.9 hPa | 0 mm | - | 625 W/m² | - |
| 1778180394 | 16.67° C | 46% | 1011.1 hPa | 0 mm | - | 659 W/m² | - |
| 1778180090 | 17.78° C | 49% | 1011.2 hPa | 0 mm | - | 652 W/m² | - |
| 1778179787 | 16.11° C | 52% | 1011.2 hPa | 0 mm | - | 661 W/m² | - |
| 1778179485 | 17.22° C | 48% | 1011.1 hPa | 0 mm | - | 649 W/m² | - |
| 1778179183 | 16.11° C | 51% | 1011.2 hPa | 0 mm | - | 647 W/m² | - |
| 1778178879 | 17.22° C | 48% | 1011.3 hPa | 0 mm | - | 661 W/m² | - |
| 1778178577 | 16.67° C | 54% | 1011.3 hPa | 0 mm | - | 678 W/m² | - |
| 1778178272 | 16.67° C | 53% | 1011.5 hPa | 0 mm | - | 676 W/m² | - |
| 1778177969 | 16.67° C | 54% | 1011.2 hPa | 0 mm | - | 683 W/m² | - |
| 1778177665 | 15.56° C | 51% | 1011.5 hPa | 0 mm | - | 684 W/m² | - |
| 1778177362 | 15.56° C | 52% | 1011.7 hPa | 0 mm | - | 676 W/m² | - |
| 1778177058 | 16.11° C | 51% | 1011.6 hPa | 0 mm | - | 680 W/m² | - |
| 1778176754 | 16.11° C | 53% | 1011.7 hPa | 0 mm | - | 689 W/m² | - |
| 1778176451 | 16.11° C | 53% | 1011.8 hPa | 0 mm | - | 680 W/m² | - |
| 1778176149 | 15.56° C | 51% | 1012 hPa | 0 mm | - | 699 W/m² | - |
| 1778175846 | 16.11° C | 54% | 1011.9 hPa | 0 mm | - | 722 W/m² | - |
| 1778175544 | 16.11° C | 50% | 1012 hPa | 0 mm | - | 701 W/m² | - |
| 1778175240 | 15.56° C | 49% | 1011.9 hPa | 0 mm | - | 699 W/m² | - |
* Rain latest hour (hover to see other rain measurements)
** Current wind speed in m/s (hover to see current wind gust speed)